Hourly Data Report for October 06, 2013

All times are specified in Local Standard Time (LST). Add 1 hour to adjust for Daylight Saving Time where and when it is observed.

HALL BEACH A
NUNAVUT

68°46'33.000" N
81°14'33.000" W
9.10 m
2402354
71293
YUX

Download Data

Hourly Data (October 2013)
Hourly Data Report for October 6, 2013
Temp Definition
°C
Dew Point Temp Definition
°C
Rel Hum Definition
%
Wind Dir Definition
10's deg

Wind Spd Definition
km/h
Visibility Definition
km
Stn Press Definition
kPa
Hmdx Definition


Wind Chill Definition


Weather Definition


TIME
00:00 Legend Double Dagger -7.3 -8.7 90   0 16.1 102.06     LegendNANA
01:00 Legend Double Dagger -7.1 -9.1 86 24 4 16.1 102.06   -9 LegendNANA
02:00 Legend Double Dagger -8.4 -9.3 94 25 5 16.1 102.08   -11 LegendNANA
03:00 Legend Double Dagger -7.7 -8.6 93 24 8 16.1 102.09   -12 LegendNANA
04:00 Legend Double Dagger -7.4 -8.5 92 25 5 16.1 102.09   -10 LegendNANA
05:00 Legend Double Dagger -7.6 -9.0 90 21 5 16.1 102.09   -10 LegendNANA
06:00 Legend Double Dagger -7.0 -9.4 83 18 4 16.1 102.10   -9 LegendNANA
07:00 Legend Double Dagger -8.7 -9.9 91 25 9 16.1 102.10   -13 LegendNANA
08:00 Legend Double Dagger -8.9 -10.3 90 28 9 16.1 102.09   -14 LegendNANA
09:00 Legend Double Dagger -7.9 -9.4 89 26 11 16.1 102.12   -13 LegendNANA
10:00 Legend Double Dagger -7.0 -8.8 87 29 9 16.1 102.14   -11 LegendNANA
11:00 Legend Double Dagger -5.8 -8.4 82 24 13 16.1 102.14   -11 LegendNANA
12:00 Legend Double Dagger -5.7 -8.4 81 26 9 16.1 102.15   -10 LegendNANA
13:00 Legend Double Dagger -5.2 -8.3 79 22 21 16.1 102.15   -12 LegendNANA
14:00 Legend Double Dagger -5.1 -8.2 79 21 9 16.1 102.16   -9 LegendNANA
15:00 Legend Double Dagger -4.9 -8.3 77 19 4 16.1 102.14   -7 LegendNANA
16:00 Legend Double Dagger -4.7 -7.8 79 14 5 16.1 102.14   -7 LegendNANA
17:00 Legend Double Dagger -4.4 -7.2 81 12 8 16.1 102.14   -8 LegendNANA
18:00 Legend Double Dagger -4.1 -6.9 81 LegendMM 4 16.1 102.17   -6 LegendNANA
19:00 Legend Double Dagger -3.9 -7.5 76 20 13 16.1 102.17   -9 LegendNANA
20:00 Legend Double Dagger -3.8 -7.4 76 20 8 16.1 102.15   -7 LegendNANA
21:00 Legend Double Dagger -3.5 -7.1 76 18 8 16.1 102.13   -7 LegendNANA
22:00 Legend Double Dagger -3.4 -6.7 78 19 11 16.1 102.09   -8 LegendNANA
23:00 Legend Double Dagger -3.5 -7.0 77 19 9 16.1 102.06   -7 LegendNANA

Notes on Data Quality.

Legend

  • E = Estimated
  • M = Missing
  • NA = Not Available
  • ‡ = Partner data that is not subject to review by the National Climate Archives
Date modified: